Time,TemperatureF,DewpointF,PressureIn,WindDirection,WindDirectionDegrees,WindSpeedMPH,WindSpeedGustMPH,Humidity,HourlyPrecipIn,Conditions,Clouds,dailyrainin,SoftwareType,DateUTC
2013-08-24 00:04:00,65.0,55.0,30.20,WSW,248,1.1,1.1,70,0.00,,,0.00,WUHU216HW,2013-08-24 07:04:00,
2013-08-24 00:09:00,65.0,55.0,30.20,WSW,248,1.1,1.1,70,0.00,,,0.00,WUHU216HW,2013-08-24 07:09:00,
2013-08-24 00:14:00,64.8,54.9,30.20,SSE,158,0.0,1.1,70,0.00,,,0.00,WUHU216HW,2013-08-24 07:14:00,
2013-08-24 00:19:00,64.8,54.9,30.20,WNW,293,0.2,0.4,70,0.00,,,0.00,WUHU216HW,2013-08-24 07:19:00,
2013-08-24 00:24:00,64.8,54.9,30.20,SW,225,0.4,3.4,70,0.00,,,0.00,WUHU216HW,2013-08-24 07:24:00,
2013-08-24 00:29:00,64.6,54.7,30.20,WSW,248,1.3,3.4,70,0.00,,,0.00,WUHU216HW,2013-08-24 07:29:00,
2013-08-24 00:34:00,64.6,54.7,30.20,SSW,203,1.1,1.8,70,0.00,,,0.00,WUHU216HW,2013-08-24 07:34:00,
2013-08-24 00:39:00,64.6,54.7,30.21,WSW,248,0.2,1.8,70,0.00,,,0.00,WUHU216HW,2013-08-24 07:39:00,
2013-08-24 00:44:00,64.6,54.7,30.21,West,270,0.0,1.1,70,0.00,,,0.00,WUHU216HW,2013-08-24 07:44:00,
2013-08-24 00:49:00,64.6,55.1,30.21,West,270,0.0,0.2,71,0.00,,,0.00,WUHU216HW,2013-08-24 07:49:00,
2013-08-24 00:54:00,64.6,55.1,30.20,WNW,293,0.0,0.0,71,0.00,,,0.00,WUHU216HW,2013-08-24 07:54:00,
2013-08-24 00:59:00,64.4,55.3,30.20,North,0,1.6,1.6,72,0.00,,,0.00,WUHU216HW,2013-08-24 07:59:00,
2013-08-24 01:04:00,64.4,55.6,30.20,North,0,0.0,1.6,73,0.00,,,0.00,WUHU216HW,2013-08-24 08:04:00,
2013-08-24 01:09:00,64.3,55.1,30.20,North,0,0.4,0.4,72,0.00,,,0.00,WUHU216HW,2013-08-24 08:09:00,
2013-08-24 01:14:00,64.3,55.4,30.20,North,0,0.0,0.4,73,0.00,,,0.00,WUHU216HW,2013-08-24 08:14:00,
2013-08-24 01:19:00,64.3,55.1,30.20,North,0,0.0,0.4,72,0.00,,,0.00,WUHU216HW,2013-08-24 08:19:00,
2013-08-24 01:24:00,64.3,55.1,30.20,North,0,0.0,0.0,72,0.00,,,0.00,WUHU216HW,2013-08-24 08:24:00,
2013-08-24 01:29:00,64.3,55.1,30.20,North,0,0.0,0.0,72,0.00,,,0.00,WUHU216HW,2013-08-24 08:29:00,
2013-08-24 01:34:00,64.1,54.9,30.20,North,0,0.0,0.0,72,0.00,,,0.00,WUHU216HW,2013-08-24 08:34:00,
2013-08-24 01:39:00,64.1,54.9,30.20,NNW,338,0.4,0.4,72,0.00,,,0.00,WUHU216HW,2013-08-24 08:39:00,
2013-08-24 01:44:00,64.1,54.9,30.20,NNW,338,0.0,0.4,72,0.00,,,0.00,WUHU216HW,2013-08-24 08:44:00,
2013-08-24 01:49:00,64.1,54.9,30.20,SSE,158,0.0,2.7,72,0.00,,,0.00,WUHU216HW,2013-08-24 08:49:00,
2013-08-24 01:54:00,64.1,54.9,30.20,SSE,158,0.7,2.7,72,0.00,,,0.00,WUHU216HW,2013-08-24 08:54:00,
2013-08-24 01:59:00,64.3,55.1,30.20,SW,225,1.3,2.5,72,0.00,,,0.00,WUHU216HW,2013-08-24 08:59:00,
2013-08-24 02:04:00,64.3,55.1,30.20,SW,225,1.8,2.5,72,0.00,,,0.00,WUHU216HW,2013-08-24 09:04:00,
2013-08-24 02:09:00,64.3,55.1,30.20,WSW,248,2.9,2.9,72,0.00,,,0.00,WUHU216HW,2013-08-24 09:09:00,
2013-08-24 02:14:00,64.3,55.1,30.21,East,90,1.1,2.9,72,0.00,,,0.00,WUHU216HW,2013-08-24 09:14:00,
2013-08-24 02:19:00,64.3,55.1,30.21,SW,225,2.2,2.7,72,0.00,,,0.00,WUHU216HW,2013-08-24 09:19:00,
2013-08-24 02:24:00,64.1,54.9,30.21,SSW,203,1.6,2.7,72,0.00,,,0.00,WUHU216HW,2013-08-24 09:24:00,
2013-08-24 02:29:00,64.1,54.9,30.21,SSE,158,1.8,1.8,72,0.00,,,0.00,WUHU216HW,2013-08-24 09:29:00,
2013-08-24 02:34:00,64.3,55.1,30.21,SSW,203,0.0,1.8,72,0.00,,,0.00,WUHU216HW,2013-08-24 09:34:00,
2013-08-24 02:39:00,64.3,55.1,30.21,WSW,248,0.0,1.1,72,0.00,,,0.00,WUHU216HW,2013-08-24 09:39:00,
2013-08-24 02:44:00,64.3,55.1,30.21,SW,225,1.3,1.3,72,0.00,,,0.00,WUHU216HW,2013-08-24 09:44:00,
2013-08-24 02:49:00,64.1,54.9,30.21,South,180,0.2,1.3,72,0.00,,,0.00,WUHU216HW,2013-08-24 09:49:00,
2013-08-24 02:54:00,64.1,55.3,30.21,SE,135,0.4,2.9,73,0.00,,,0.00,WUHU216HW,2013-08-24 09:54:00,
2013-08-24 02:59:00,63.9,55.1,30.21,SSE,158,1.6,3.6,73,0.00,,,0.00,WUHU216HW,2013-08-24 09:59:00,
2013-08-24 03:04:00,64.1,55.3,30.21,SW,225,1.3,3.6,73,0.00,,,0.00,WUHU216HW,2013-08-24 10:04:00,
2013-08-24 03:09:00,63.9,55.4,30.21,SW,225,2.7,2.7,74,0.00,,,0.00,WUHU216HW,2013-08-24 10:09:00,
2013-08-24 03:14:00,63.9,55.1,30.21,SSE,158,1.3,2.7,73,0.00,,,0.00,WUHU216HW,2013-08-24 10:14:00,
2013-08-24 03:19:00,63.7,54.9,30.21,SSW,203,2.5,2.7,73,0.00,,,0.00,WUHU216HW,2013-08-24 10:19:00,
2013-08-24 03:24:00,63.7,54.9,30.21,South,180,0.4,2.5,73,0.00,,,0.00,WUHU216HW,2013-08-24 10:24:00,
2013-08-24 03:29:00,63.5,54.7,30.21,SSW,203,1.1,1.3,73,0.00,,,0.00,WUHU216HW,2013-08-24 10:29:00,
2013-08-24 03:34:00,63.4,54.9,30.21,ESE,113,0.9,1.8,74,0.00,,,0.00,WUHU216HW,2013-08-24 10:34:00,
2013-08-24 03:39:00,63.4,54.9,30.21,SSW,203,0.9,1.8,74,0.00,,,0.00,WUHU216HW,2013-08-24 10:39:00,
2013-08-24 03:44:00,63.4,54.9,30.21,SSE,158,0.0,0.9,74,0.00,,,0.00,WUHU216HW,2013-08-24 10:44:00,
2013-08-24 03:49:00,63.5,55.1,30.21,South,180,1.1,1.1,74,0.00,,,0.00,WUHU216HW,2013-08-24 10:49:00,
2013-08-24 03:54:00,63.5,55.1,30.21,SSE,158,1.1,1.1,74,0.00,,,0.00,WUHU216HW,2013-08-24 10:54:00,
2013-08-24 03:59:00,63.5,55.1,30.21,SW,225,0.7,1.1,74,0.00,,,0.00,WUHU216HW,2013-08-24 10:59:00,
2013-08-24 04:04:00,63.5,55.1,30.21,SW,225,0.0,0.7,74,0.00,,,0.00,WUHU216HW,2013-08-24 11:04:00,
2013-08-24 04:09:00,63.4,54.9,30.20,SSE,158,0.0,1.1,74,0.00,,,0.00,WUHU216HW,2013-08-24 11:09:00,
2013-08-24 04:14:00,63.4,54.9,30.20,SSE,158,1.3,1.3,74,0.00,,,0.00,WUHU216HW,2013-08-24 11:14:00,
2013-08-24 04:19:00,63.4,54.9,30.21,SSE,158,0.0,1.3,74,0.00,,,0.00,WUHU216HW,2013-08-24 11:19:00,
2013-08-24 04:24:00,63.4,54.9,30.21,SSE,158,0.0,1.3,74,0.00,,,0.00,WUHU216HW,2013-08-24 11:24:00,
2013-08-24 04:29:00,63.4,54.9,30.21,SE,135,0.0,1.1,74,0.00,,,0.00,WUHU216HW,2013-08-24 11:29:00,
2013-08-24 04:34:00,63.4,54.9,30.20,SE,135,0.0,1.1,74,0.00,,,0.00,WUHU216HW,2013-08-24 11:34:00,
2013-08-24 04:39:00,63.4,54.9,30.21,SSE,158,0.0,0.7,74,0.00,,,0.00,WUHU216HW,2013-08-24 11:39:00,
2013-08-24 04:44:00,63.4,54.9,30.21,SSE,158,0.0,0.7,74,0.00,,,0.00,WUHU216HW,2013-08-24 11:44:00,
2013-08-24 04:49:00,63.4,55.3,30.21,SW,225,0.0,0.7,75,0.00,,,0.00,WUHU216HW,2013-08-24 11:49:00,
2013-08-24 04:54:00,63.4,55.3,30.21,SW,225,0.0,0.0,75,0.00,,,0.00,WUHU216HW,2013-08-24 11:54:00,
2013-08-24 04:59:00,63.2,55.1,30.21,SSW,203,0.0,0.0,75,0.00,,,0.00,WUHU216HW,2013-08-24 11:59:00,
2013-08-24 05:04:00,63.2,55.1,30.20,SSW,203,1.8,1.8,75,0.00,,,0.00,WUHU216HW,2013-08-24 12:04:00,
2013-08-24 05:09:00,63.4,55.3,30.20,SE,135,0.0,1.8,75,0.00,,,0.00,WUHU216HW,2013-08-24 12:09:00,
2013-08-24 05:14:00,63.4,55.3,30.20,South,180,0.0,1.8,75,0.00,,,0.00,WUHU216HW,2013-08-24 12:14:00,
2013-08-24 05:19:00,63.2,55.1,30.20,South,180,0.0,0.9,75,0.00,,,0.00,WUHU216HW,2013-08-24 12:19:00,
2013-08-24 05:24:00,63.0,55.3,30.20,ESE,113,0.0,0.9,76,0.00,,,0.00,WUHU216HW,2013-08-24 12:24:00,
2013-08-24 05:29:00,63.0,55.3,30.20,SSW,203,0.0,2.2,76,0.00,,,0.00,WUHU216HW,2013-08-24 12:29:00,
2013-08-24 05:34:00,62.6,54.5,30.20,SE,135,0.9,2.2,75,0.00,,,0.00,WUHU216HW,2013-08-24 12:34:00,
2013-08-24 05:39:00,62.6,54.5,30.20,SE,135,0.0,2.2,75,0.00,,,0.00,WUHU216HW,2013-08-24 12:39:00,
2013-08-24 05:44:00,62.6,54.9,30.20,SE,135,0.0,0.2,76,0.00,,,0.00,WUHU216HW,2013-08-24 12:44:00,
2013-08-24 05:49:00,62.5,54.7,30.20,SSE,158,0.9,0.9,76,0.00,,,0.00,WUHU216HW,2013-08-24 12:49:00,
2013-08-24 05:54:00,62.3,54.5,30.20,WNW,293,0.0,0.9,76,0.00,,,0.00,WUHU216HW,2013-08-24 12:54:00,
2013-08-24 05:59:00,62.1,54.8,30.20,SW,225,0.4,1.6,77,0.00,,,0.00,WUHU216HW,2013-08-24 12:59:00,
2013-08-24 06:04:00,62.1,54.8,30.20,SSW,203,0.0,1.6,77,0.00,,,0.00,WUHU216HW,2013-08-24 13:04:00,
2013-08-24 06:09:00,61.9,55.0,30.20,South,180,0.0,1.1,78,0.00,,,0.00,WUHU216HW,2013-08-24 13:09:00,
2013-08-24 06:14:00,61.9,55.0,30.20,WSW,248,1.8,1.8,78,0.00,,,0.00,WUHU216HW,2013-08-24 13:14:00,
2013-08-24 06:19:00,61.9,55.0,30.20,SW,225,0.0,1.8,78,0.00,,,0.00,WUHU216HW,2013-08-24 13:19:00,
2013-08-24 06:24:00,62.1,55.2,30.20,WNW,293,0.4,1.6,78,0.00,,,0.00,WUHU216HW,2013-08-24 13:24:00,
2013-08-24 06:29:00,62.3,55.3,30.20,SW,225,1.1,1.1,78,0.00,,,0.00,WUHU216HW,2013-08-24 13:29:00,
2013-08-24 06:34:00,62.1,55.2,30.20,SW,225,3.4,3.4,78,0.00,,,0.00,WUHU216HW,2013-08-24 13:34:00,
2013-08-24 06:39:00,61.9,55.0,30.20,WSW,248,0.0,3.4,78,0.00,,,0.00,WUHU216HW,2013-08-24 13:39:00,
2013-08-24 06:44:00,62.1,55.2,30.20,WSW,248,0.0,3.4,78,0.00,,,0.00,WUHU216HW,2013-08-24 13:44:00,
2013-08-24 06:49:00,62.1,55.2,30.20,NE,45,0.0,0.7,78,0.00,,,0.00,WUHU216HW,2013-08-24 13:49:00,
2013-08-24 06:54:00,62.1,55.2,30.20,South,180,0.0,0.9,78,0.00,,,0.00,WUHU216HW,2013-08-24 13:54:00,
2013-08-24 06:59:00,62.1,55.2,30.20,South,180,0.0,0.9,78,0.00,,,0.00,WUHU216HW,2013-08-24 13:59:00,
2013-08-24 07:04:00,62.1,55.5,30.21,SSW,203,0.9,1.3,79,0.00,,,0.00,WUHU216HW,2013-08-24 14:04:00,
2013-08-24 07:09:00,61.9,55.4,30.21,SW,225,0.0,1.3,79,0.00,,,0.00,WUHU216HW,2013-08-24 14:09:00,
2013-08-24 07:14:00,61.7,55.5,30.21,WSW,248,0.7,1.1,80,0.00,,,0.00,WUHU216HW,2013-08-24 14:14:00,
2013-08-24 07:19:00,61.7,55.5,30.21,SW,225,0.0,1.1,80,0.00,,,0.00,WUHU216HW,2013-08-24 14:19:00,
2013-08-24 07:24:00,61.6,55.7,30.21,SSW,203,0.0,0.7,81,0.00,,,0.00,WUHU216HW,2013-08-24 14:24:00,
2013-08-24 07:29:00,61.6,55.4,30.21,SSW,203,1.3,1.3,80,0.00,,,0.00,WUHU216HW,2013-08-24 14:29:00,
2013-08-24 07:34:00,61.7,55.9,30.21,SSW,203,0.0,1.3,81,0.00,,,0.00,WUHU216HW,2013-08-24 14:34:00,
2013-08-24 07:39:00,61.7,55.9,30.21,SW,225,0.0,1.8,81,0.00,,,0.00,WUHU216HW,2013-08-24 14:39:00,
2013-08-24 07:44:00,61.9,56.1,30.21,SW,225,0.9,1.8,81,0.00,,,0.00,WUHU216HW,2013-08-24 14:44:00,
2013-08-24 07:49:00,61.9,56.1,30.22,WSW,248,2.0,2.0,81,0.00,,,0.00,WUHU216HW,2013-08-24 14:49:00,
2013-08-24 07:54:00,62.1,56.5,30.22,SW,225,0.9,2.0,82,0.00,,,0.00,WUHU216HW,2013-08-24 14:54:00,
2013-08-24 07:59:00,61.9,56.1,30.22,WSW,248,0.0,0.9,81,0.00,,,0.00,WUHU216HW,2013-08-24 14:59:00,
2013-08-24 08:04:00,61.9,56.1,30.21,SW,225,1.1,1.1,81,0.00,,,0.00,WUHU216HW,2013-08-24 15:04:00,
2013-08-24 08:09:00,62.1,56.2,30.22,WSW,248,0.4,1.1,81,0.00,,,0.00,WUHU216HW,2013-08-24 15:09:00,
2013-08-24 08:14:00,62.1,56.2,30.22,West,270,0.0,1.1,81,0.00,,,0.00,WUHU216HW,2013-08-24 15:14:00,
2013-08-24 08:19:00,62.3,56.3,30.22,West,270,0.0,1.1,81,0.00,,,0.00,WUHU216HW,2013-08-24 15:19:00,
2013-08-24 08:24:00,62.3,56.3,30.22,SE,135,0.0,1.1,81,0.00,,,0.00,WUHU216HW,2013-08-24 15:24:00,
2013-08-24 08:29:00,62.5,56.5,30.22,SW,225,0.2,1.3,81,0.00,,,0.00,WUHU216HW,2013-08-24 15:29:00,
2013-08-24 08:34:00,62.5,56.5,30.22,SSW,203,0.4,1.3,81,0.00,,,0.00,WUHU216HW,2013-08-24 15:34:00,
2013-08-24 08:39:00,62.5,56.5,30.22,SW,225,0.0,1.6,81,0.00,,,0.00,WUHU216HW,2013-08-24 15:39:00,
2013-08-24 08:44:00,62.5,56.5,30.22,SW,225,0.9,1.6,81,0.00,,,0.00,WUHU216HW,2013-08-24 15:44:00,
2013-08-24 08:49:00,62.6,56.7,30.22,SW,225,0.0,1.1,81,0.00,,,0.00,WUHU216HW,2013-08-24 15:49:00,
2013-08-24 08:54:00,62.6,56.7,30.22,SW,225,1.8,1.8,81,0.00,,,0.00,WUHU216HW,2013-08-24 15:54:00,
2013-08-24 08:59:00,62.8,56.9,30.22,WSW,248,0.0,1.8,81,0.00,,,0.00,WUHU216HW,2013-08-24 15:59:00,
2013-08-24 09:04:00,62.8,57.3,30.22,SW,225,2.2,2.2,82,0.00,,,0.00,WUHU216HW,2013-08-24 16:04:00,
2013-08-24 09:09:00,63.0,57.1,30.22,SW,225,0.4,2.2,81,0.00,,,0.00,WUHU216HW,2013-08-24 16:09:00,
2013-08-24 09:14:00,63.0,57.1,30.22,SSW,203,0.4,0.9,81,0.00,,,0.00,WUHU216HW,2013-08-24 16:14:00,
2013-08-24 09:19:00,63.0,57.1,30.22,SSW,203,2.5,2.5,81,0.00,,,0.00,WUHU216HW,2013-08-24 16:19:00,
2013-08-24 09:24:00,63.2,57.3,30.21,West,270,1.1,2.5,81,0.00,,,0.00,WUHU216HW,2013-08-24 16:24:00,
2013-08-24 09:29:00,63.4,57.1,30.22,WSW,248,0.4,3.1,80,0.00,,,0.00,WUHU216HW,2013-08-24 16:29:00,
2013-08-24 09:34:00,63.5,56.9,30.21,WSW,248,0.0,3.1,79,0.00,,,0.00,WUHU216HW,2013-08-24 16:34:00,
2013-08-24 09:39:00,63.7,57.1,30.22,SW,225,2.7,2.7,79,0.00,,,0.00,WUHU216HW,2013-08-24 16:39:00,
2013-08-24 09:44:00,63.9,57.2,30.21,SW,225,2.9,2.9,79,0.00,,,0.00,WUHU216HW,2013-08-24 16:44:00,
2013-08-24 09:49:00,64.1,57.4,30.21,SSE,158,1.6,2.9,79,0.00,,,0.00,WUHU216HW,2013-08-24 16:49:00,
2013-08-24 09:54:00,64.4,57.1,30.21,SSW,203,1.6,2.9,77,0.00,,,0.00,WUHU216HW,2013-08-24 16:54:00,
2013-08-24 09:59:00,64.4,57.1,30.21,SSW,203,1.1,2.5,77,0.00,,,0.00,WUHU216HW,2013-08-24 16:59:00,
2013-08-24 10:04:00,64.6,57.3,30.21,SW,225,1.1,2.5,77,0.00,,,0.00,WUHU216HW,2013-08-24 17:04:00,
2013-08-24 10:09:00,64.6,57.3,30.21,WSW,248,0.0,1.1,77,0.00,,,0.00,WUHU216HW,2013-08-24 17:09:00,
2013-08-24 10:14:00,64.8,57.4,30.22,South,180,0.0,0.7,77,0.00,,,0.00,WUHU216HW,2013-08-24 17:14:00,
2013-08-24 10:19:00,65.2,57.8,30.22,WSW,248,1.1,1.1,77,0.00,,,0.00,WUHU216HW,2013-08-24 17:19:00,
2013-08-24 10:24:00,65.3,57.6,30.22,SW,225,0.2,1.3,76,0.00,,,0.00,WUHU216HW,2013-08-24 17:24:00,
2013-08-24 10:29:00,65.2,57.4,30.22,SW,225,0.0,1.3,76,0.00,,,0.00,WUHU216HW,2013-08-24 17:29:00,
2013-08-24 10:34:00,65.2,57.1,30.22,SSE,158,0.0,1.8,75,0.00,,,0.00,WUHU216HW,2013-08-24 17:34:00,
2013-08-24 10:39:00,65.2,57.1,30.22,SSW,203,0.9,3.6,75,0.00,,,0.00,WUHU216HW,2013-08-24 17:39:00,
2013-08-24 10:44:00,65.2,57.1,30.22,SSE,158,0.0,3.6,75,0.00,,,0.00,WUHU216HW,2013-08-24 17:44:00,
2013-08-24 10:49:00,65.2,56.7,30.22,WSW,248,1.1,3.4,74,0.00,,,0.00,WUHU216HW,2013-08-24 17:49:00,
2013-08-24 10:54:00,65.0,56.5,30.22,WSW,248,1.8,3.4,74,0.00,,,0.00,WUHU216HW,2013-08-24 17:54:00,
2013-08-24 10:59:00,65.0,56.5,30.22,SSE,158,1.1,3.1,74,0.00,,,0.00,WUHU216HW,2013-08-24 17:59:00,
2013-08-24 11:04:00,65.2,57.1,30.22,SW,225,0.0,2.5,75,0.00,,,0.00,WUHU216HW,2013-08-24 18:04:00,
2013-08-24 11:09:00,65.2,56.7,30.22,WSW,248,0.7,3.4,74,0.00,,,0.00,WUHU216HW,2013-08-24 18:09:00,
2013-08-24 11:14:00,65.2,56.7,30.22,WSW,248,0.4,3.4,74,0.00,,,0.00,WUHU216HW,2013-08-24 18:14:00,
2013-08-24 11:19:00,65.3,56.8,30.22,WSW,248,0.0,1.8,74,0.00,,,0.00,WUHU216HW,2013-08-24 18:19:00,
2013-08-24 11:24:00,65.7,57.2,30.22,SSW,203,0.7,2.2,74,0.00,,,0.00,WUHU216HW,2013-08-24 18:24:00,
2013-08-24 11:29:00,65.5,57.0,30.22,SSE,158,1.8,2.2,74,0.00,,,0.00,WUHU216HW,2013-08-24 18:29:00,
2013-08-24 11:34:00,65.5,57.0,30.22,SSE,158,0.0,1.8,74,0.00,,,0.00,WUHU216HW,2013-08-24 18:34:00,
2013-08-24 11:39:00,65.5,57.0,30.22,SSE,158,2.5,2.5,74,0.00,,,0.00,WUHU216HW,2013-08-24 18:39:00,
2013-08-24 11:44:00,65.3,56.8,30.22,SSE,158,0.0,2.5,74,0.00,,,0.00,WUHU216HW,2013-08-24 18:44:00,
2013-08-24 11:49:00,65.5,57.0,30.22,SSW,203,0.0,2.0,74,0.00,,,0.00,WUHU216HW,2013-08-24 18:49:00,
2013-08-24 11:54:00,65.7,57.2,30.22,North,0,0.0,2.0,74,0.00,,,0.00,WUHU216HW,2013-08-24 18:54:00,
2013-08-24 11:59:00,66.2,57.7,30.22,SSE,158,0.7,1.8,74,0.00,,,0.00,WUHU216HW,2013-08-24 18:59:00,
2013-08-24 12:04:00,66.8,57.4,30.22,WSW,248,0.4,1.8,72,0.00,,,0.00,WUHU216HW,2013-08-24 19:04:00,
2013-08-24 12:09:00,67.0,57.6,30.22,SSW,203,0.9,1.1,72,0.00,,,0.00,WUHU216HW,2013-08-24 19:09:00,
2013-08-24 12:14:00,67.0,57.2,30.21,SSW,203,0.2,2.0,71,0.00,,,0.00,WUHU216HW,2013-08-24 19:14:00,
2013-08-24 12:19:00,67.0,56.9,30.21,NNW,338,1.1,2.0,70,0.00,,,0.00,WUHU216HW,2013-08-24 19:19:00,
2013-08-24 12:24:00,67.0,56.9,30.21,North,0,0.0,1.3,70,0.00,,,0.00,WUHU216HW,2013-08-24 19:24:00,
2013-08-24 12:29:00,67.3,57.2,30.21,SSW,203,0.7,2.0,70,0.00,,,0.00,WUHU216HW,2013-08-24 19:29:00,
2013-08-24 12:34:00,67.5,57.4,30.21,SSW,203,0.0,2.0,70,0.00,,,0.00,WUHU216HW,2013-08-24 19:34:00,
2013-08-24 12:39:00,67.7,57.6,30.21,SSW,203,2.0,2.0,70,0.00,,,0.00,WUHU216HW,2013-08-24 19:39:00,
2013-08-24 12:44:00,67.9,56.9,30.21,North,0,0.9,2.0,68,0.00,,,0.00,WUHU216HW,2013-08-24 19:44:00,
2013-08-24 12:49:00,68.2,57.2,30.21,SE,135,1.1,2.0,68,0.00,,,0.00,WUHU216HW,2013-08-24 19:49:00,
2013-08-24 12:54:00,68.6,57.2,30.21,NW,315,0.9,1.1,67,0.00,,,0.00,WUHU216HW,2013-08-24 19:54:00,
2013-08-24 12:59:00,68.9,57.5,30.21,SSE,158,3.8,4.0,67,0.00,,,0.00,WUHU216HW,2013-08-24 19:59:00,
2013-08-24 13:04:00,68.9,57.1,30.21,SSW,203,0.4,5.6,66,0.00,,,0.00,WUHU216HW,2013-08-24 20:04:00,
2013-08-24 13:09:00,68.9,57.1,30.21,South,180,1.8,5.6,66,0.00,,,0.00,WUHU216HW,2013-08-24 20:09:00,
2013-08-24 13:14:00,69.1,56.8,30.21,NNW,338,0.7,4.5,65,0.00,,,0.00,WUHU216HW,2013-08-24 20:14:00,
2013-08-24 13:19:00,69.1,57.2,30.21,SSE,158,1.1,4.5,66,0.00,,,0.00,WUHU216HW,2013-08-24 20:19:00,
2013-08-24 13:24:00,69.1,56.8,30.21,North,0,0.9,3.4,65,0.00,,,0.00,WUHU216HW,2013-08-24 20:24:00,
2013-08-24 13:29:00,69.3,57.0,30.21,SSW,203,0.2,1.1,65,0.00,,,0.00,WUHU216HW,2013-08-24 20:29:00,
2013-08-24 13:34:00,69.5,56.8,30.21,SSW,203,2.0,2.0,64,0.00,,,0.00,WUHU216HW,2013-08-24 20:34:00,
2013-08-24 13:39:00,69.7,56.9,30.20,NNE,23,0.4,2.0,64,0.00,,,0.00,WUHU216HW,2013-08-24 20:39:00,
2013-08-24 13:44:00,69.7,56.9,30.20,NNE,23,0.4,0.4,64,0.00,,,0.00,WUHU216HW,2013-08-24 20:44:00,
2013-08-24 13:49:00,69.7,56.9,30.20,NNE,23,0.4,0.4,64,0.00,,,0.00,WUHU216HW,2013-08-24 20:49:00,
2013-08-24 13:59:00,71.3,56.7,30.21,SSW,203,0.0,0.0,60,0.00,,,0.00,WUHU216HW,2013-08-24 20:59:00,
2013-08-24 14:04:00,71.3,56.7,30.21,NNW,338,0.4,1.8,60,0.00,,,0.00,WUHU216HW,2013-08-24 21:04:00,
2013-08-24 14:09:00,71.3,56.3,30.21,SSE,158,1.3,1.8,59,0.00,,,0.00,WUHU216HW,2013-08-24 21:09:00,
2013-08-24 14:14:00,71.3,56.7,30.21,West,270,0.4,1.3,60,0.00,,,0.00,WUHU216HW,2013-08-24 21:14:00,
2013-08-24 14:19:00,71.3,56.7,30.20,West,270,0.0,1.3,60,0.00,,,0.00,WUHU216HW,2013-08-24 21:19:00,
2013-08-24 14:24:00,71.3,55.7,30.20,North,0,1.3,1.8,58,0.00,,,0.00,WUHU216HW,2013-08-24 21:24:00,
2013-08-24 14:29:00,71.1,54.1,30.20,NE,45,1.6,3.8,55,0.00,,,0.00,WUHU216HW,2013-08-24 21:29:00,
2013-08-24 14:34:00,70.9,55.5,30.20,NE,45,0.7,3.8,58,0.00,,,0.00,WUHU216HW,2013-08-24 21:34:00,
2013-08-24 14:39:00,71.3,55.7,30.20,North,0,0.4,1.1,58,0.00,,,0.00,WUHU216HW,2013-08-24 21:39:00,
2013-08-24 14:44:00,71.6,55.5,30.20,South,180,0.2,2.2,57,0.00,,,0.00,WUHU216HW,2013-08-24 21:44:00,
2013-08-24 14:49:00,72.0,54.9,30.20,SSW,203,1.8,2.2,55,0.00,,,0.00,WUHU216HW,2013-08-24 21:49:00,
2013-08-24 14:54:00,72.4,54.7,30.19,SW,225,2.0,3.1,54,0.00,,,0.00,WUHU216HW,2013-08-24 21:54:00,
2013-08-24 14:59:00,73.3,55.5,30.19,North,0,0.2,3.1,54,0.00,,,0.00,WUHU216HW,2013-08-24 21:59:00,
2013-08-24 15:04:00,73.4,55.2,30.19,SE,135,1.1,2.5,53,0.00,,,0.00,WUHU216HW,2013-08-24 22:04:00,
2013-08-24 15:09:00,73.1,54.4,30.19,SSW,203,1.1,1.8,52,0.00,,,0.00,WUHU216HW,2013-08-24 22:09:00,
2013-08-24 15:14:00,72.9,54.2,30.19,SSW,203,0.9,1.8,52,0.00,,,0.00,WUHU216HW,2013-08-24 22:14:00,
2013-08-24 15:19:00,72.5,53.8,30.19,South,180,1.1,1.1,52,0.00,,,0.00,WUHU216HW,2013-08-24 22:19:00,
2013-08-24 15:24:00,72.7,54.0,30.19,SW,225,1.1,1.6,52,0.00,,,0.00,WUHU216HW,2013-08-24 22:24:00,
2013-08-24 15:29:00,72.7,54.0,30.19,South,180,0.4,2.7,52,0.00,,,0.00,WUHU216HW,2013-08-24 22:29:00,
2013-08-24 15:34:00,72.7,53.5,30.19,NNE,23,0.4,2.7,51,0.00,,,0.00,WUHU216HW,2013-08-24 22:34:00,
2013-08-24 15:39:00,72.7,53.5,30.19,WSW,248,0.4,2.5,51,0.00,,,0.00,WUHU216HW,2013-08-24 22:39:00,
2013-08-24 15:44:00,72.7,53.5,30.19,SW,225,1.6,1.8,51,0.00,,,0.00,WUHU216HW,2013-08-24 22:44:00,
2013-08-24 15:49:00,73.1,53.3,30.19,NNE,23,0.0,1.6,50,0.00,,,0.00,WUHU216HW,2013-08-24 22:49:00,
2013-08-24 15:54:00,72.7,52.4,30.18,NNW,338,0.0,1.8,49,0.00,,,0.00,WUHU216HW,2013-08-24 22:54:00,
2013-08-24 15:59:00,72.7,52.4,30.18,SSE,158,1.6,1.8,49,0.00,,,0.00,WUHU216HW,2013-08-24 22:59:00,
2013-08-24 16:04:00,72.7,51.9,30.19,SSE,158,2.5,2.9,48,0.00,,,0.00,WUHU216HW,2013-08-24 23:04:00,
2013-08-24 16:09:00,72.9,51.9,30.18,NNW,338,0.9,3.4,48,0.00,,,0.00,WUHU216HW,2013-08-24 23:09:00,
2013-08-24 16:14:00,72.9,51.9,30.18,South,180,1.6,3.4,48,0.00,,,0.00,WUHU216HW,2013-08-24 23:14:00,
2013-08-24 16:19:00,73.1,52.8,30.18,SSW,203,2.0,3.4,49,0.00,,,0.00,WUHU216HW,2013-08-24 23:19:00,
2013-08-24 16:24:00,73.4,53.0,30.18,WSW,248,0.0,3.4,49,0.00,,,0.00,WUHU216HW,2013-08-24 23:24:00,
2013-08-24 16:29:00,73.6,53.2,30.18,South,180,0.4,2.5,49,0.00,,,0.00,WUHU216HW,2013-08-24 23:29:00,
2013-08-24 16:34:00,73.6,52.7,30.18,SSW,203,3.4,3.4,48,0.00,,,0.00,WUHU216HW,2013-08-24 23:34:00,
2013-08-24 16:39:00,73.8,52.8,30.17,SSW,203,0.7,3.4,48,0.00,,,0.00,WUHU216HW,2013-08-24 23:39:00,
2013-08-24 16:44:00,73.8,52.8,30.17,SSE,158,0.9,2.9,48,0.00,,,0.00,WUHU216HW,2013-08-24 23:44:00,
2013-08-24 16:49:00,74.2,53.2,30.17,WSW,248,3.4,3.4,48,0.00,,,0.00,WUHU216HW,2013-08-24 23:49:00,
2013-08-24 16:54:00,74.2,51.9,30.18,WSW,248,0.7,3.4,46,0.00,,,0.00,WUHU216HW,2013-08-24 23:54:00,
2013-08-24 16:59:00,74.0,51.8,30.18,WSW,248,2.5,4.5,46,0.00,,,0.00,WUHU216HW,2013-08-24 23:59:00,
2013-08-24 17:04:00,74.0,53.0,30.18,SE,135,1.6,4.5,48,0.00,,,0.00,WUHU216HW,2013-08-25 00:04:00,
2013-08-24 17:09:00,74.2,53.2,30.18,SSW,203,0.7,1.8,48,0.00,,,0.00,WUHU216HW,2013-08-25 00:09:00,
2013-08-24 17:14:00,74.2,53.2,30.18,SSE,158,0.4,1.8,48,0.00,,,0.00,WUHU216HW,2013-08-25 00:14:00,
2013-08-24 17:19:00,74.0,53.0,30.17,East,90,0.7,1.6,48,0.00,,,0.00,WUHU216HW,2013-08-25 00:19:00,
2013-08-24 17:24:00,74.2,53.2,30.17,South,180,1.6,2.0,48,0.00,,,0.00,WUHU216HW,2013-08-25 00:24:00,
2013-08-24 17:29:00,74.2,53.2,30.17,SSW,203,0.0,2.0,48,0.00,,,0.00,WUHU216HW,2013-08-25 00:29:00,
2013-08-24 17:34:00,74.0,53.0,30.17,South,180,0.4,1.1,48,0.00,,,0.00,WUHU216HW,2013-08-25 00:34:00,
2013-08-24 17:39:00,73.8,52.2,30.17,SW,225,0.4,1.6,47,0.00,,,0.00,WUHU216HW,2013-08-25 00:39:00,
2013-08-24 17:44:00,73.4,52.5,30.17,SSW,203,0.0,1.6,48,0.00,,,0.00,WUHU216HW,2013-08-25 00:44:00,
2013-08-24 17:49:00,73.3,52.3,30.17,NW,315,0.0,1.1,48,0.00,,,0.00,WUHU216HW,2013-08-25 00:49:00,
2013-08-24 17:54:00,73.1,52.1,30.17,South,180,0.2,1.1,48,0.00,,,0.00,WUHU216HW,2013-08-25 00:54:00,
2013-08-24 17:59:00,72.9,52.6,30.17,North,0,1.6,1.6,49,0.00,,,0.00,WUHU216HW,2013-08-25 00:59:00,
2013-08-24 18:04:00,72.9,52.6,30.17,North,0,0.0,1.6,49,0.00,,,0.00,WUHU216HW,2013-08-25 01:04:00,
2013-08-24 18:09:00,72.7,53.5,30.17,North,0,1.1,1.8,51,0.00,,,0.00,WUHU216HW,2013-08-25 01:09:00,
2013-08-24 18:14:00,72.4,53.2,30.17,North,0,1.1,2.2,51,0.00,,,0.00,WUHU216HW,2013-08-25 01:14:00,
2013-08-24 18:19:00,72.2,53.6,30.17,North,0,1.8,2.2,52,0.00,,,0.00,WUHU216HW,2013-08-25 01:19:00,
2013-08-24 18:24:00,72.2,53.6,30.17,North,0,0.0,1.8,52,0.00,,,0.00,WUHU216HW,2013-08-25 01:24:00,
2013-08-24 18:29:00,72.2,53.6,30.17,North,0,1.3,1.8,52,0.00,,,0.00,WUHU216HW,2013-08-25 01:29:00,
2013-08-24 18:34:00,72.2,53.6,30.17,SSW,203,0.4,1.8,52,0.00,,,0.00,WUHU216HW,2013-08-25 01:34:00,
2013-08-24 18:39:00,72.2,54.0,30.17,North,0,0.0,2.2,53,0.00,,,0.00,WUHU216HW,2013-08-25 01:39:00,
2013-08-24 18:44:00,72.2,54.0,30.17,North,0,0.2,2.2,53,0.00,,,0.00,WUHU216HW,2013-08-25 01:44:00,
2013-08-24 18:49:00,72.0,53.8,30.17,North,0,0.0,0.2,53,0.00,,,0.00,WUHU216HW,2013-08-25 01:49:00,
2013-08-24 18:54:00,72.0,53.8,30.17,North,0,0.0,0.0,53,0.00,,,0.00,WUHU216HW,2013-08-25 01:54:00,
2013-08-24 18:59:00,72.0,53.8,30.17,North,0,0.2,0.2,53,0.00,,,0.00,WUHU216HW,2013-08-25 01:59:00,
2013-08-24 19:04:00,72.2,54.0,30.17,North,0,0.0,0.2,53,0.00,,,0.00,WUHU216HW,2013-08-25 02:04:00,
2013-08-24 19:09:00,72.2,54.6,30.17,North,0,0.0,0.0,54,0.00,,,0.00,WUHU216HW,2013-08-25 02:09:00,
2013-08-24 19:14:00,72.0,54.9,30.17,North,0,0.0,0.0,55,0.00,,,0.00,WUHU216HW,2013-08-25 02:14:00,
2013-08-24 19:19:00,72.0,54.9,30.17,North,0,0.0,0.7,55,0.00,,,0.00,WUHU216HW,2013-08-25 02:19:00,
2013-08-24 19:24:00,72.0,54.9,30.17,North,0,0.4,1.3,55,0.00,,,0.00,WUHU216HW,2013-08-25 02:24:00,
2013-08-24 19:29:00,71.6,54.5,30.17,NNW,338,0.0,1.3,55,0.00,,,0.00,WUHU216HW,2013-08-25 02:29:00,
2013-08-24 19:34:00,71.5,54.4,30.17,North,0,0.0,1.1,55,0.00,,,0.00,WUHU216HW,2013-08-25 02:34:00,
2013-08-24 19:39:00,71.3,54.2,30.17,North,0,0.7,1.1,55,0.00,,,0.00,WUHU216HW,2013-08-25 02:39:00,
2013-08-24 19:44:00,71.3,54.2,30.17,North,0,0.0,1.1,55,0.00,,,0.00,WUHU216HW,2013-08-25 02:44:00,
2013-08-24 19:49:00,70.9,54.4,30.17,North,0,0.4,0.9,56,0.00,,,0.00,WUHU216HW,2013-08-25 02:49:00,
2013-08-24 19:54:00,70.6,54.1,30.18,North,0,0.0,0.7,56,0.00,,,0.00,WUHU216HW,2013-08-25 02:54:00,
2013-08-24 19:59:00,70.2,53.7,30.18,NNW,338,0.2,3.6,56,0.00,,,0.00,WUHU216HW,2013-08-25 02:59:00,
2013-08-24 20:04:00,69.8,53.9,30.18,North,0,0.0,3.6,57,0.00,,,0.00,WUHU216HW,2013-08-25 03:04:00,
2013-08-24 20:09:00,69.7,53.7,30.18,North,0,0.0,1.1,57,0.00,,,0.00,WUHU216HW,2013-08-25 03:09:00,
2013-08-24 20:14:00,69.5,54.1,30.19,North,0,0.9,1.1,58,0.00,,,0.00,WUHU216HW,2013-08-25 03:14:00,
2013-08-24 20:19:00,68.9,53.6,30.19,North,0,2.2,2.5,58,0.00,,,0.00,WUHU216HW,2013-08-25 03:19:00,
2013-08-24 20:23:00,68.6,53.2,30.19,North,0,0.7,2.5,58,0.00,,,0.00,WUHU216HW,2013-08-25 03:23:00,
2013-08-24 20:28:00,68.2,53.4,30.19,North,0,0.4,1.1,59,0.00,,,0.00,WUHU216HW,2013-08-25 03:28:00,
2013-08-24 20:33:00,67.9,53.0,30.19,North,0,0.4,1.6,59,0.00,,,0.00,WUHU216HW,2013-08-25 03:33:00,
2013-08-24 20:38:00,67.7,52.8,30.19,North,0,0.0,1.6,59,0.00,,,0.00,WUHU216HW,2013-08-25 03:38:00,
2013-08-24 20:44:00,67.5,53.2,30.20,North,0,0.0,1.1,60,0.00,,,0.00,WUHU216HW,2013-08-25 03:44:00,
2013-08-24 20:48:00,67.1,52.8,30.20,North,0,0.0,1.1,60,0.00,,,0.00,WUHU216HW,2013-08-25 03:48:00,
2013-08-24 20:53:00,67.0,52.7,30.20,North,0,0.0,1.1,60,0.00,,,0.00,WUHU216HW,2013-08-25 03:53:00,
2013-08-24 20:58:00,66.6,52.4,30.20,North,0,0.0,1.1,60,0.00,,,0.00,WUHU216HW,2013-08-25 03:58:00,
2013-08-24 21:01:00,66.4,52.6,30.20,North,0,0.0,1.1,61,0.00,,,0.00,WUHU216HW,2013-08-25 04:01:00,
2013-08-24 21:02:00,66.4,52.6,30.20,North,0,0.0,1.1,61,0.00,,,0.00,WUHU216HW,2013-08-25 04:02:00,
2013-08-24 21:07:00,66.1,52.3,30.20,North,0,0.0,0.7,61,0.00,,,0.00,WUHU216HW,2013-08-25 04:07:00,
2013-08-24 21:12:00,65.9,52.1,30.21,NNE,23,0.0,0.7,61,0.00,,,0.00,WUHU216HW,2013-08-25 04:12:00,
2013-08-24 21:17:00,65.5,52.1,30.21,NNE,23,0.0,0.4,62,0.00,,,0.00,WUHU216HW,2013-08-25 04:17:00,
2013-08-24 21:22:00,65.3,51.9,30.21,NNE,23,0.0,0.0,62,0.00,,,0.00,WUHU216HW,2013-08-25 04:22:00,
2013-08-24 21:27:00,65.2,52.2,30.21,NNE,23,0.0,0.0,63,0.00,,,0.00,WUHU216HW,2013-08-25 04:27:00,
2013-08-24 21:32:00,64.8,51.8,30.21,NNE,23,0.0,0.0,63,0.00,,,0.00,WUHU216HW,2013-08-25 04:32:00,
2013-08-24 21:37:00,64.6,51.7,30.21,NNE,23,0.0,0.0,63,0.00,,,0.00,WUHU216HW,2013-08-25 04:37:00,
2013-08-24 21:42:00,64.4,51.5,30.21,NNE,23,0.0,0.0,63,0.00,,,0.00,WUHU216HW,2013-08-25 04:42:00,
2013-08-24 21:47:00,64.3,51.8,30.21,NNE,23,0.0,0.0,64,0.00,,,0.00,WUHU216HW,2013-08-25 04:47:00,
2013-08-24 21:52:00,64.1,51.6,30.22,NNE,23,0.0,0.0,64,0.00,,,0.00,WUHU216HW,2013-08-25 04:52:00,
2013-08-24 21:57:00,63.7,51.7,30.22,NNE,23,0.0,0.0,65,0.00,,,0.00,WUHU216HW,2013-08-25 04:57:00,
2013-08-24 22:02:00,63.4,51.4,30.22,NNE,23,0.0,0.0,65,0.00,,,0.00,WUHU216HW,2013-08-25 05:02:00,
2013-08-24 22:07:00,63.4,51.4,30.22,NNE,23,0.0,0.0,65,0.00,,,0.00,WUHU216HW,2013-08-25 05:07:00,
2013-08-24 22:12:00,63.0,51.0,30.22,NNE,23,0.0,0.0,65,0.00,,,0.00,WUHU216HW,2013-08-25 05:12:00,
2013-08-24 22:17:00,62.8,51.3,30.22,NNE,23,0.0,0.0,66,0.00,,,0.00,WUHU216HW,2013-08-25 05:17:00,
2013-08-24 22:22:00,62.6,51.1,30.21,NNE,23,0.0,0.0,66,0.00,,,0.00,WUHU216HW,2013-08-25 05:22:00,
2013-08-24 22:27:00,62.5,51.3,30.22,NNE,23,0.0,0.0,67,0.00,,,0.00,WUHU216HW,2013-08-25 05:27:00,
2013-08-24 22:32:00,62.3,51.2,30.22,NNE,23,0.0,0.0,67,0.00,,,0.00,WUHU216HW,2013-08-25 05:32:00,
2013-08-24 22:37:00,62.3,51.2,30.22,NNE,23,0.0,0.0,67,0.00,,,0.00,WUHU216HW,2013-08-25 05:37:00,
2013-08-24 22:42:00,62.3,51.6,30.22,NNE,23,0.0,0.0,68,0.00,,,0.00,WUHU216HW,2013-08-25 05:42:00,
2013-08-24 22:47:00,62.3,51.6,30.22,NNE,23,0.0,0.0,68,0.00,,,0.00,WUHU216HW,2013-08-25 05:47:00,
2013-08-24 22:52:00,62.1,51.4,30.23,NNE,23,0.0,0.0,68,0.00,,,0.00,WUHU216HW,2013-08-25 05:52:00,
2013-08-24 22:57:00,62.1,51.4,30.23,NNE,23,0.0,0.0,68,0.00,,,0.00,WUHU216HW,2013-08-25 05:57:00,
2013-08-24 23:02:00,61.7,51.5,30.23,NNE,23,0.0,0.0,69,0.00,,,0.00,WUHU216HW,2013-08-25 06:02:00,
2013-08-24 23:07:00,61.6,51.4,30.23,NNE,23,0.0,0.0,69,0.00,,,0.00,WUHU216HW,2013-08-25 06:07:00,
2013-08-24 23:12:00,61.4,51.2,30.23,NNE,23,0.0,0.0,69,0.00,,,0.00,WUHU216HW,2013-08-25 06:12:00,
2013-08-24 23:17:00,61.2,51.0,30.24,NNE,23,0.0,0.0,69,0.00,,,0.00,WUHU216HW,2013-08-25 06:17:00,
2013-08-24 23:22:00,61.2,51.0,30.24,NNE,23,0.0,0.0,69,0.00,,,0.00,WUHU216HW,2013-08-25 06:22:00,
2013-08-24 23:27:00,61.2,51.0,30.24,NNE,23,0.0,0.0,69,0.00,,,0.00,WUHU216HW,2013-08-25 06:27:00,
2013-08-24 23:32:00,61.0,51.3,30.24,NNE,23,0.0,0.0,70,0.00,,,0.00,WUHU216HW,2013-08-25 06:32:00,
2013-08-24 23:37:00,61.0,51.3,30.24,NNE,23,0.0,0.0,70,0.00,,,0.00,WUHU216HW,2013-08-25 06:37:00,
2013-08-24 23:42:00,60.8,51.1,30.24,NNE,23,0.0,0.0,70,0.00,,,0.00,WUHU216HW,2013-08-25 06:42:00,
2013-08-24 23:47:00,60.8,51.5,30.24,NNE,23,0.0,0.0,71,0.00,,,0.00,WUHU216HW,2013-08-25 06:47:00,
2013-08-24 23:52:00,60.5,51.1,30.24,NNE,23,0.0,0.0,71,0.00,,,0.00,WUHU216HW,2013-08-25 06:52:00,
2013-08-24 23:57:00,60.5,51.5,30.24,NNE,23,0.0,0.0,72,0.00,,,0.00,WUHU216HW,2013-08-25 06:57:00,